| time (UTC) | temp F | wind direction | speed knots | gust knots | rain 1hr in | rain 24hr in | rain mn in | humidity % | barometer mb |
| 20260906111005 | 80 | 140 | 1.7 | 7.8 | 0.00 | 0.00 | 0.00 | 49 | 1024.0 |
| 20260906110503 | 80 | 164 | 2.6 | 6.1 | 0.00 | 0.00 | 0.00 | 49 | 1024.0 |
| 20260906110004 | 80 | 178 | 2.6 | 7.8 | 0.00 | 0.00 | 0.00 | 50 | 1024.1 |
| 20260906105505 | 79 | 170 | 2.6 | 8.7 | 0.00 | 0.00 | 0.00 | 50 | 1024.1 |
| 20260906105003 | 79 | 189 | 2.6 | 8.7 | 0.00 | 0.00 | 0.00 | 50 | 1024.1 |
| 20260906104503 | 79 | 113 | 3.5 | 7.8 | 0.00 | 0.00 | 0.00 | 51 | 1024.1 |
| 20260906104005 | 79 | 96 | 2.6 | 9.6 | 0.00 | 0.00 | 0.00 | 50 | 1024.2 |
| 20260906103503 | 79 | 143 | 2.6 | 9.6 | 0.00 | 0.00 | 0.00 | 50 | 1024.2 |
| 20260906103003 | 79 | 164 | 3.5 | 7.0 | 0.00 | 0.00 | 0.00 | 50 | 1024.3 |
| 20260906102712 | 79 | 144 | 3.5 | 7.0 | 0.00 | 0.00 | 0.00 | 50 | 1024.2 |
| 20260906102003 | 79 | 129 | 2.6 | 10.4 | 0.00 | 0.00 | 0.00 | 50 | 1024.5 |
| 20260906101503 | 79 | 136 | 2.6 | 8.7 | 0.00 | 0.00 | 0.00 | 51 | 1024.5 |
| 20260906101005 | 78 | 130 | 2.6 | 6.1 | 0.00 | 0.00 | 0.00 | 52 | 1024.5 |
| 20260906100503 | 78 | 240 | 2.6 | 8.7 | 0.00 | 0.00 | 0.00 | 51 | 1024.5 |
| 20260906100004 | 78 | 203 | 2.6 | 8.7 | 0.00 | 0.00 | 0.00 | 52 | 1024.5 |
| 20260906095505 | 78 | 149 | 1.7 | 7.8 | 0.00 | 0.00 | 0.00 | 51 | 1024.5 |
| 20260906095003 | 78 | 139 | 2.6 | 7.8 | 0.00 | 0.00 | 0.00 | 51 | 1024.5 |
| 20260906094504 | 78 | 137 | 2.6 | 7.0 | 0.00 | 0.00 | 0.00 | 51 | 1024.5 |
| 20260906094005 | 77 | 132 | 3.5 | 8.7 | 0.00 | 0.00 | 0.00 | 52 | 1024.6 |
| 20260906093503 | 77 | 145 | 4.3 | 8.7 | 0.00 | 0.00 | 0.00 | 52 | 1024.6 |
| 20260906093003 | 77 | 131 | 3.5 | 9.6 | 0.00 | 0.00 | 0.00 | 53 | 1024.7 |
| 20260906092505 | 77 | 115 | 3.5 | 9.6 | 0.00 | 0.00 | 0.00 | 53 | 1024.7 |
| 20260906092003 | 77 | 88 | 2.6 | 9.6 | 0.00 | 0.00 | 0.00 | 53 | 1024.7 |
| 20260906091503 | 77 | 74 | 2.6 | 7.8 | 0.00 | 0.00 | 0.00 | 57 | 1024.7 |
| 20260906091005 | 77 | 98 | 3.5 | 5.2 | 0.00 | 0.00 | 0.00 | 57 | 1024.8 |
| 20260906090710 | 76 | 120 | 3.5 | 10.4 | 0.00 | 0.00 | 0.00 | 57 | 1024.9 |
| 20260906090211 | 76 | 120 | 4.3 | 10.4 | 0.00 | 0.00 | 0.00 | 54 | 1024.8 |
| 20260906085505 | 76 | 105 | 2.6 | 10.4 | 0.00 | 0.00 | 0.00 | 55 | 1025.0 |
| 20260906085003 | 76 | 118 | 1.7 | 10.4 | 0.00 | 0.00 | 0.00 | 56 | 1024.9 |
| 20260906084711 | 76 | 152 | 1.7 | 7.8 | 0.00 | 0.00 | 0.00 | 58 | 1025.1 |
| 20260906084005 | 76 | 115 | 2.6 | 7.0 | 0.00 | 0.00 | 0.00 | 58 | 1025.0 |
| 20260906083711 | 76 | 129 | 3.5 | 7.0 | 0.00 | 0.00 | 0.00 | 57 | 1025.1 |
| 20260906083003 | 75 | 155 | 3.5 | 8.7 | 0.00 | 0.00 | 0.00 | 58 | 1025.2 |
| 20260906082505 | 75 | 157 | 3.5 | 12.2 | 0.00 | 0.00 | 0.00 | 57 | 1025.3 |
| 20260906082003 | 75 | 142 | 3.5 | 12.2 | 0.00 | 0.00 | 0.00 | 58 | 1025.2 |
| 20260906081503 | 75 | 125 | 3.5 | 8.7 | 0.00 | 0.00 | 0.00 | 58 | 1025.2 |
| 20260906081005 | 75 | 133 | 3.5 | 9.6 | 0.00 | 0.00 | 0.00 | 59 | 1025.2 |
| 20260906080503 | 75 | 128 | 2.6 | 9.6 | 0.00 | 0.00 | 0.00 | 58 | 1025.1 |
| 20260906080004 | 75 | 127 | 2.6 | 7.0 | 0.00 | 0.00 | 0.00 | 58 | 1025.2 |
| 20260906075505 | 74 | 102 | 2.6 | 6.1 | 0.00 | 0.00 | 0.00 | 60 | 1025.0 |
| 20260906075003 | 74 | 56 | 2.6 | 8.7 | 0.00 | 0.00 | 0.00 | 64 | 1024.9 |
| 20260906074503 | 74 | 63 | 3.5 | 8.7 | 0.00 | 0.00 | 0.00 | 63 | 1024.9 |
| 20260906074005 | 74 | 95 | 2.6 | 8.7 | 0.00 | 0.00 | 0.00 | 65 | 1024.8 |
| 20260906073503 | 74 | 98 | 2.6 | 8.7 | 0.00 | 0.00 | 0.00 | 65 | 1024.9 |
| 20260906073211 | 74 | 85 | 2.6 | 7.0 | 0.00 | 0.00 | 0.00 | 66 | 1024.9 |
| 20260906072712 | 73 | 79 | 2.6 | 9.6 | 0.00 | 0.00 | 0.00 | 67 | 1024.9 |
| 20260906072003 | 73 | 94 | 3.5 | 9.6 | 0.00 | 0.00 | 0.00 | 67 | 1025.0 |
| 20260906071503 | 73 | 102 | 4.3 | 7.8 | 0.00 | 0.00 | 0.00 | 67 | 1024.8 |
| 20260906071005 | 72 | 103 | 4.3 | 7.8 | 0.00 | 0.00 | 0.00 | 69 | 1024.8 |
| 20260906070503 | 72 | 103 | 3.5 | 7.8 | 0.00 | 0.00 | 0.00 | 70 | 1024.8 |
| 20260906070004 | 71 | 104 | 2.6 | 7.8 | 0.00 | 0.00 | 0.00 | 73 | 1024.8 |
| 20260906065712 | 71 | 96 | 1.7 | 7.8 | 0.00 | 0.00 | 0.00 | 73 | 1024.7 |
| 20260906065003 | 69 | 65 | 0.9 | 5.2 | 0.00 | 0.00 | 0.00 | 77 | 1024.7 |
| 20260906064503 | 68 | 46 | 0.9 | 3.5 | 0.00 | 0.00 | 0.00 | 78 | 1024.7 |
| 20260906064005 | 68 | 342 | 0.9 | 2.6 | 0.00 | 0.00 | 0.00 | 80 | 1024.8 |
| 20260906063503 | 67 | 342 | 0.9 | 2.6 | 0.00 | 0.00 | 0.00 | 79 | 1024.7 |
| 20260906063003 | 67 | 342 | 0.0 | 2.6 | 0.00 | 0.00 | 0.00 | 79 | 1024.7 |
| 20260906062505 | 66 | 342 | 0.0 | 2.6 | 0.00 | 0.00 | 0.00 | 81 | 1024.8 |
| 20260906062003 | 66 | 342 | 0.0 | 2.6 | 0.00 | 0.00 | 0.00 | 82 | 1024.7 |
| 20260906061503 | 65 | 331 | 0.0 | 0.9 | 0.00 | 0.00 | 0.00 | 85 | 1024.6 |
| 20260906060503 | 64 | 331 | 0.0 | 0.9 | 0.00 | 0.00 | 0.00 | 85 | 1024.5 |
| 20260906060004 | 63 | 331 | 0.0 | 0.9 | 0.00 | 0.00 | 0.00 | 85 | 1024.4 |
| 20260906055505 | 63 | 331 | 0.0 | 0.9 | 0.00 | 0.00 | 0.00 | 86 | 1024.5 |
| 20260906055210 | 63 | 331 | 0.0 | 0.9 | 0.00 | 0.00 | 0.00 | 86 | 1024.3 |
| 20260906054503 | 63 | 0 | 0.0 | 0.0 | 0.00 | 0.00 | 0.00 | 86 | 1024.2 |
| 20260906054005 | 63 | 0 | 0.0 | 0.0 | 0.00 | 0.00 | 0.00 | 86 | 1024.2 |
| 20260906053710 | 63 | 0 | 0.0 | 0.0 | 0.00 | 0.00 | 0.00 | 86 | 1024.2 |
| 20260906053003 | 63 | 0 | 0.0 | 0.0 | 0.00 | 0.00 | 0.00 | 86 | 1024.2 |
| 20260906052505 | 63 | 0 | 0.0 | 0.0 | 0.00 | 0.00 | 0.00 | 86 | 1024.1 |
| 20260906052003 | 63 | 0 | 0.0 | 0.0 | 0.00 | 0.00 | 0.00 | 85 | 1024.0 |
| 20260906051503 | 63 | 0 | 0.0 | 0.0 | 0.00 | 0.00 | 0.00 | 85 | 1023.9 |
| 20260906051005 | 63 | 331 | 0.0 | 0.9 | 0.00 | 0.00 | 0.00 | 85 | 1024.0 |
| 20260906050503 | 63 | 331 | 0.0 | 1.7 | 0.00 | 0.00 | 0.00 | 85 | 1024.0 |
| 20260906050004 | 63 | 331 | 0.0 | 1.7 | 0.00 | 0.00 | 0.00 | 85 | 1024.0 |
| 20260906045505 | 63 | 331 | 0.0 | 1.7 | 0.00 | 0.00 | 0.00 | 86 | 1024.0 |
| 20260906045003 | 63 | 331 | 0.0 | 1.7 | 0.00 | 0.00 | 0.00 | 86 | 1024.0 |
| 20260906044503 | 63 | 331 | 0.0 | 0.9 | 0.00 | 0.00 | 0.00 | 85 | 1023.9 |
| 20260906044005 | 63 | 0 | 0.0 | 0.0 | 0.00 | 0.00 | 0.00 | 86 | 1023.9 |
| 20260906043711 | 63 | 0 | 0.0 | 0.0 | 0.00 | 0.00 | 0.00 | 85 | 1023.9 |
| 20260906043003 | 63 | 0 | 0.0 | 0.0 | 0.00 | 0.00 | 0.00 | 86 | 1023.8 |
| 20260906042505 | 63 | 0 | 0.0 | 0.0 | 0.00 | 0.00 | 0.00 | 85 | 1023.7 |
| 20260906042003 | 63 | 0 | 0.0 | 0.0 | 0.00 | 0.00 | 0.00 | 85 | 1023.8 |
| 20260906041711 | 63 | 0 | 0.0 | 0.0 | 0.00 | 0.00 | 0.00 | 86 | 1023.7 |
| 20260906041212 | 63 | 0 | 0.0 | 0.0 | 0.00 | 0.00 | 0.00 | 86 | 1023.7 |
| 20260906040503 | 63 | 0 | 0.0 | 0.0 | 0.00 | 0.00 | 0.00 | 86 | 1023.6 |
| 20260906040004 | 63 | 0 | 0.0 | 0.0 | 0.00 | 0.00 | 0.00 | 85 | 1023.6 |
| 20260906035505 | 63 | 0 | 0.0 | 0.0 | 0.00 | 0.00 | 0.00 | 86 | 1023.6 |
| 20260906035003 | 63 | 0 | 0.0 | 0.0 | 0.00 | 0.00 | 0.00 | 85 | 1023.6 |
| 20260906034504 | 63 | 0 | 0.0 | 0.0 | 0.00 | 0.00 | 0.00 | 85 | 1023.5 |
| 20260906034005 | 63 | 331 | 0.0 | 0.9 | 0.00 | 0.00 | 0.00 | 84 | 1023.5 |
| 20260906033504 | 63 | 331 | 0.0 | 0.9 | 0.00 | 0.00 | 0.00 | 84 | 1023.4 |
| 20260906033003 | 63 | 331 | 0.0 | 0.9 | 0.00 | 0.00 | 0.00 | 84 | 1023.4 |
| 20260906032505 | 63 | 0 | 0.0 | 0.0 | 0.00 | 0.00 | 0.00 | 84 | 1023.4 |
| 20260906032003 | 63 | 0 | 0.0 | 0.0 | 0.00 | 0.00 | 0.00 | 84 | 1023.2 |
| 20260906031503 | 64 | 0 | 0.0 | 0.0 | 0.00 | 0.00 | 0.00 | 84 | 1023.3 |
| 20260906031005 | 64 | 0 | 0.0 | 0.0 | 0.00 | 0.00 | 0.00 | 84 | 1023.2 |
| 20260906030503 | 64 | 331 | 0.0 | 0.9 | 0.00 | 0.00 | 0.00 | 83 | 1023.2 |
| 20260906030004 | 64 | 331 | 0.0 | 0.9 | 0.00 | 0.00 | 0.00 | 83 | 1023.2 |
| 20260906025712 | 64 | 331 | 0.0 | 0.9 | 0.00 | 0.00 | 0.00 | 83 | 1023.2 |
| 20260906025211 | 64 | 0 | 0.0 | 0.0 | 0.00 | 0.00 | 0.00 | 82 | 1023.3 |
| 20260906024503 | 64 | 331 | 0.0 | 0.9 | 0.00 | 0.00 | 0.00 | 82 | 1023.1 |
| 20260906024003 | 64 | 331 | 0.0 | 2.6 | 0.00 | 0.00 | 0.00 | 83 | 1023.1 |
| 20260906023712 | 64 | 331 | 0.0 | 2.6 | 0.00 | 0.00 | 0.00 | 83 | 1023.1 |
| 20260906023003 | 64 | 331 | 0.0 | 1.7 | 0.00 | 0.00 | 0.00 | 82 | 1023.0 |
| 20260906022503 | 64 | 331 | 0.0 | 1.7 | 0.00 | 0.00 | 0.00 | 82 | 1023.1 |
| 20260906022005 | 65 | 331 | 0.0 | 1.7 | 0.00 | 0.00 | 0.00 | 82 | 1023.1 |
| 20260906021503 | 65 | 331 | 0.0 | 0.9 | 0.00 | 0.00 | 0.00 | 82 | 1023.0 |
| 20260906021003 | 65 | 331 | 0.0 | 0.9 | 0.00 | 0.00 | 0.00 | 82 | 1022.9 |
| 20260906020505 | 65 | 331 | 0.0 | 0.9 | 0.00 | 0.00 | 0.00 | 82 | 1023.0 |
| 20260906020004 | 65 | 331 | 0.0 | 0.9 | 0.00 | 0.00 | 0.00 | 82 | 1023.0 |
| 20260906015503 | 65 | 0 | 0.0 | 0.0 | 0.00 | 0.00 | 0.00 | 81 | 1023.0 |
| 20260906015005 | 65 | 331 | 0.0 | 0.9 | 0.00 | 0.00 | 0.00 | 81 | 1022.9 |
| 20260906014503 | 65 | 331 | 0.0 | 0.9 | 0.00 | 0.00 | 0.00 | 82 | 1022.9 |
| 20260906014003 | 65 | 0 | 0.0 | 0.0 | 0.00 | 0.00 | 0.00 | 82 | 1022.9 |
| 20260906013505 | 65 | 0 | 0.0 | 0.0 | 0.00 | 0.00 | 0.00 | 82 | 1022.9 |
| 20260906013003 | 65 | 0 | 0.0 | 0.0 | 0.00 | 0.00 | 0.00 | 81 | 1022.8 |
| 20260906012503 | 65 | 0 | 0.0 | 0.0 | 0.00 | 0.00 | 0.00 | 82 | 1022.7 |
| 20260906012005 | 65 | 0 | 0.0 | 0.0 | 0.00 | 0.00 | 0.00 | 81 | 1022.7 |
| 20260906011711 | 65 | 0 | 0.0 | 0.0 | 0.00 | 0.00 | 0.00 | 81 | 1022.7 |
| 20260906011003 | 65 | 331 | 0.9 | 1.7 | 0.00 | 0.00 | 0.00 | 82 | 1022.8 |
| 20260906010712 | 65 | 331 | 0.9 | 1.7 | 0.00 | 0.00 | 0.00 | 82 | 1022.8 |
| 20260906010004 | 65 | 331 | 0.0 | 1.7 | 0.00 | 0.00 | 0.00 | 82 | 1022.7 |
| 20260906005503 | 65 | 331 | 0.0 | 1.7 | 0.00 | 0.00 | 0.00 | 82 | 1022.6 |
| 20260906005005 | 65 | 331 | 0.0 | 1.7 | 0.00 | 0.00 | 0.00 | 81 | 1022.6 |
| 20260906004503 | 65 | 0 | 0.0 | 0.0 | 0.00 | 0.00 | 0.00 | 81 | 1022.7 |
| 20260906004003 | 64 | 0 | 0.0 | 0.0 | 0.00 | 0.00 | 0.00 | 81 | 1022.5 |
| 20260906003505 | 64 | 331 | 0.9 | 1.7 | 0.00 | 0.00 | 0.00 | 81 | 1022.6 |
| 20260906003003 | 64 | 331 | 0.9 | 2.6 | 0.00 | 0.00 | 0.00 | 81 | 1022.6 |
| 20260906002503 | 64 | 331 | 0.9 | 2.6 | 0.00 | 0.00 | 0.00 | 82 | 1022.4 |
| 20260906002005 | 64 | 331 | 0.0 | 1.7 | 0.00 | 0.00 | 0.00 | 82 | 1022.4 |
| 20260906001711 | 64 | 331 | 0.0 | 1.7 | 0.00 | 0.00 | 0.00 | 82 | 1022.5 |
| 20260906001003 | 64 | 0 | 0.0 | 0.0 | 0.00 | 0.00 | 0.00 | 81 | 1022.4 |
| 20260906000712 | 64 | 0 | 0.0 | 0.0 | 0.00 | 0.00 | 0.00 | 81 | 1022.4 |
| 20260906000004 | 64 | 331 | 0.9 | 1.7 | 0.00 | 0.00 | 0.00 | 81 | 1022.2 |
| 20260905235503 | 64 | 331 | 0.9 | 2.6 | 0.00 | 0.00 | 0.00 | 82 | 1022.0 |
| 20260905235005 | 64 | 331 | 0.0 | 2.6 | 0.00 | 0.00 | 0.00 | 81 | 1022.0 |
| 20260905234711 | 64 | 331 | 0.0 | 2.6 | 0.00 | 0.00 | 0.00 | 81 | 1022.0 |
| 20260905234210 | 65 | 331 | 0.0 | 0.9 | 0.00 | 0.00 | 0.00 | 81 | 1022.1 |
| 20260905233505 | 65 | 0 | 0.0 | 0.0 | 0.00 | 0.00 | 0.00 | 79 | 1022.0 |
| 20260905233003 | 65 | 0 | 0.0 | 0.0 | 0.00 | 0.00 | 0.00 | 79 | 1021.9 |
| 20260905232503 | 65 | 0 | 0.0 | 0.0 | 0.00 | 0.00 | 0.00 | 79 | 1021.8 |
| 20260905232005 | 65 | 331 | 0.0 | 0.9 | 0.00 | 0.00 | 0.00 | 79 | 1021.8 |
| 20260905231503 | 65 | 331 | 0.0 | 0.9 | 0.00 | 0.00 | 0.00 | 79 | 1021.9 |
| 20260905231003 | 66 | 331 | 0.0 | 0.9 | 0.00 | 0.00 | 0.00 | 79 | 1021.8 |
| 20260905230505 | 66 | 0 | 0.0 | 0.0 | 0.00 | 0.00 | 0.00 | 78 | 1021.9 |
| 20260905230211 | 66 | 0 | 0.0 | 0.0 | 0.00 | 0.00 | 0.00 | 78 | 1021.9 |
| 20260905225711 | 66 | 331 | 0.0 | 1.7 | 0.00 | 0.00 | 0.00 | 78 | 1021.9 |
| 20260905225212 | 66 | 331 | 0.0 | 1.7 | 0.00 | 0.00 | 0.00 | 78 | 1021.9 |
| 20260905224503 | 66 | 331 | 0.0 | 0.9 | 0.00 | 0.00 | 0.00 | 77 | 1021.8 |
| 20260905224003 | 66 | 0 | 0.0 | 0.0 | 0.00 | 0.00 | 0.00 | 78 | 1021.9 |
| 20260905223505 | 66 | 331 | 0.0 | 1.7 | 0.00 | 0.00 | 0.00 | 77 | 1021.8 |
| 20260905223210 | 66 | 331 | 0.0 | 1.7 | 0.00 | 0.00 | 0.00 | 77 | 1021.7 |
| 20260905222503 | 67 | 0 | 0.0 | 0.0 | 0.00 | 0.00 | 0.00 | 77 | 1021.7 |
| 20260905222005 | 67 | 331 | 0.0 | 0.9 | 0.00 | 0.00 | 0.00 | 77 | 1021.7 |
| 20260905221503 | 67 | 331 | 0.0 | 0.9 | 0.00 | 0.00 | 0.00 | 77 | 1021.7 |
| 20260905221003 | 67 | 331 | 0.0 | 0.9 | 0.00 | 0.00 | 0.00 | 77 | 1021.8 |
| 20260905220503 | 67 | 331 | 0.0 | 0.9 | 0.00 | 0.00 | 0.00 | 77 | 1021.6 |
| 20260905220122 | 67 | 0 | 0.0 | 0.0 | 0.00 | 0.00 | 0.00 | 77 | 1021.7 |
| 20260905215503 | 67 | 331 | 0.0 | 2.6 | 0.00 | 0.00 | 0.00 | 76 | 1021.6 |
| 20260905215212 | 67 | 331 | 0.0 | 2.6 | 0.00 | 0.00 | 0.00 | 76 | 1021.6 |
| 20260905214503 | 67 | 331 | 0.0 | 0.9 | 0.00 | 0.00 | 0.00 | 76 | 1021.5 |
| 20260905214003 | 67 | 331 | 0.0 | 0.9 | 0.00 | 0.00 | 0.00 | 76 | 1021.4 |
| 20260905213505 | 67 | 331 | 0.0 | 1.7 | 0.00 | 0.00 | 0.00 | 76 | 1021.5 |
| 20260905213003 | 67 | 331 | 0.0 | 1.7 | 0.00 | 0.00 | 0.00 | 76 | 1021.4 |
| 20260905212711 | 67 | 331 | 0.0 | 1.7 | 0.00 | 0.00 | 0.00 | 77 | 1021.4 |
| 20260905212005 | 67 | 0 | 0.0 | 0.0 | 0.00 | 0.00 | 0.00 | 75 | 1021.3 |
| 20260905211503 | 67 | 0 | 0.0 | 0.0 | 0.00 | 0.00 | 0.00 | 76 | 1021.2 |
| 20260905211210 | 67 | 331 | 0.0 | 1.7 | 0.00 | 0.00 | 0.00 | 76 | 1021.1 |
| 20260905210505 | 67 | 331 | 0.0 | 1.7 | 0.00 | 0.00 | 0.00 | 75 | 1021.3 |
| 20260905210004 | 67 | 331 | 0.0 | 0.9 | 0.00 | 0.00 | 0.00 | 75 | 1021.1 |
| 20260905205503 | 67 | 331 | 0.0 | 0.9 | 0.00 | 0.00 | 0.00 | 76 | 1021.0 |
| 20260905205212 | 67 | 331 | 0.0 | 0.9 | 0.00 | 0.00 | 0.00 | 76 | 1020.9 |
| 20260905204503 | 67 | 0 | 0.0 | 0.0 | 0.00 | 0.00 | 0.00 | 76 | 1020.9 |
| 20260905204003 | 67 | 0 | 0.0 | 0.0 | 0.00 | 0.00 | 0.00 | 74 | 1021.0 |
| 20260905203505 | 67 | 0 | 0.0 | 0.0 | 0.00 | 0.00 | 0.00 | 75 | 1020.9 |
| 20260905203210 | 67 | 0 | 0.0 | 0.0 | 0.00 | 0.00 | 0.00 | 75 | 1020.9 |
| 20260905202503 | 68 | 0 | 0.0 | 0.0 | 0.00 | 0.00 | 0.00 | 74 | 1020.8 |
| 20260905202006 | 68 | 0 | 0.0 | 0.0 | 0.00 | 0.00 | 0.00 | 74 | 1020.7 |
| 20260905201503 | 68 | 0 | 0.0 | 0.0 | 0.00 | 0.00 | 0.00 | 74 | 1020.8 |
| 20260905201003 | 68 | 0 | 0.0 | 0.0 | 0.00 | 0.00 | 0.00 | 73 | 1020.7 |
| 20260905200712 | 68 | 0 | 0.0 | 0.0 | 0.00 | 0.00 | 0.00 | 73 | 1020.7 |
| 20260905200211 | 68 | 0 | 0.0 | 0.0 | 0.00 | 0.00 | 0.00 | 72 | 1020.6 |
| 20260905195505 | 69 | 0 | 0.0 | 0.0 | 0.00 | 0.00 | 0.00 | 73 | 1020.4 |
| 20260905195004 | 69 | 331 | 0.9 | 1.7 | 0.00 | 0.00 | 0.00 | 72 | 1020.3 |
| 20260905194503 | 69 | 331 | 0.9 | 2.6 | 0.00 | 0.00 | 0.00 | 72 | 1020.4 |
| 20260905194005 | 69 | 325 | 0.9 | 3.5 | 0.00 | 0.00 | 0.00 | 72 | 1020.4 |
| 20260905193503 | 70 | 321 | 0.9 | 3.5 | 0.00 | 0.00 | 0.00 | 72 | 1020.4 |
| 20260905193003 | 70 | 319 | 0.9 | 3.5 | 0.00 | 0.00 | 0.00 | 72 | 1020.3 |
| 20260905192505 | 70 | 320 | 0.9 | 2.6 | 0.00 | 0.00 | 0.00 | 70 | 1020.3 |
| 20260905192003 | 70 | 325 | 0.9 | 2.6 | 0.00 | 0.00 | 0.00 | 71 | 1020.3 |
| 20260905191503 | 71 | 326 | 0.9 | 2.6 | 0.00 | 0.00 | 0.00 | 70 | 1020.4 |
| 20260905191005 | 71 | 324 | 0.0 | 2.6 | 0.00 | 0.00 | 0.00 | 69 | 1020.2 |
| 20260905190503 | 71 | 322 | 0.0 | 2.6 | 0.00 | 0.00 | 0.00 | 70 | 1020.0 |
| 20260905190004 | 72 | 322 | 0.0 | 0.9 | 0.00 | 0.00 | 0.00 | 68 | 1020.0 |
| 20260905185712 | 72 | 322 | 0.0 | 0.9 | 0.00 | 0.00 | 0.00 | 68 | 1020.0 |
| 20260905185003 | 72 | 322 | 0.0 | 0.9 | 0.00 | 0.00 | 0.00 | 68 | 1020.0 |
| 20260905184503 | 72 | 322 | 0.0 | 1.7 | 0.00 | 0.00 | 0.00 | 68 | 1019.9 |
| 20260905184005 | 72 | 322 | 0.0 | 2.6 | 0.00 | 0.00 | 0.00 | 68 | 1019.9 |
| 20260905183711 | 72 | 322 | 0.0 | 2.6 | 0.00 | 0.00 | 0.00 | 68 | 1019.8 |
| 20260905183003 | 73 | 322 | 0.9 | 0.9 | 0.00 | 0.00 | 0.00 | 66 | 1019.7 |
| 20260905182712 | 73 | 322 | 0.9 | 3.5 | 0.00 | 0.00 | 0.00 | 66 | 1019.6 |
| 20260905182003 | 73 | 322 | 0.0 | 3.5 | 0.00 | 0.00 | 0.00 | 67 | 1019.4 |
| 20260905181503 | 74 | 322 | 0.0 | 1.7 | 0.00 | 0.00 | 0.00 | 67 | 1019.2 |
| 20260905181005 | 74 | 322 | 0.9 | 0.9 | 0.00 | 0.00 | 0.00 | 65 | 1019.1 |
| 20260905180503 | 74 | 322 | 1.7 | 3.5 | 0.00 | 0.00 | 0.00 | 65 | 1019.1 |
| 20260905180004 | 75 | 326 | 1.7 | 3.5 | 0.00 | 0.00 | 0.00 | 64 | 1019.0 |
| 20260905175505 | 75 | 328 | 1.7 | 3.5 | 0.00 | 0.00 | 0.00 | 63 | 1019.0 |
| 20260905175003 | 76 | 331 | 1.7 | 4.3 | 0.00 | 0.00 | 0.00 | 62 | 1018.7 |
| 20260905174503 | 76 | 346 | 0.9 | 4.3 | 0.00 | 0.00 | 0.00 | 61 | 1018.7 |
| 20260905174005 | 76 | 9 | 0.0 | 2.6 | 0.00 | 0.00 | 0.00 | 60 | 1018.7 |
| 20260905173503 | 76 | 103 | 0.0 | 1.7 | 0.00 | 0.00 | 0.00 | 58 | 1018.5 |
| 20260905173003 | 76 | 103 | 0.0 | 1.7 | 0.00 | 0.00 | 0.00 | 56 | 1018.5 |
| 20260905172712 | 77 | 103 | 0.0 | 2.6 | 0.00 | 0.00 | 0.00 | 56 | 1018.5 |
| 20260905172003 | 77 | 103 | 0.9 | 2.6 | 0.00 | 0.00 | 0.00 | 56 | 1018.6 |
| 20260905171503 | 77 | 107 | 0.9 | 1.7 | 0.00 | 0.00 | 0.00 | 56 | 1018.6 |
| 20260905171005 | 77 | 110 | 1.7 | 4.3 | 0.00 | 0.00 | 0.00 | 55 | 1018.6 |
| 20260905170503 | 77 | 109 | 0.9 | 4.3 | 0.00 | 0.00 | 0.00 | 55 | 1018.6 |
| 20260905170004 | 77 | 100 | 0.9 | 2.6 | 0.00 | 0.00 | 0.00 | 55 | 1018.5 |
| 20260905165505 | 77 | 88 | 1.7 | 3.5 | 0.00 | 0.00 | 0.00 | 55 | 1018.4 |
| 20260905165003 | 78 | 101 | 1.7 | 5.2 | 0.00 | 0.00 | 0.00 | 55 | 1018.4 |
| 20260905164503 | 78 | 106 | 1.7 | 5.2 | 0.00 | 0.00 | 0.00 | 55 | 1018.3 |
| 20260905164005 | 78 | 100 | 1.7 | 6.1 | 0.00 | 0.00 | 0.00 | 54 | 1018.3 |
| 20260905163503 | 78 | 101 | 1.7 | 6.1 | 0.00 | 0.00 | 0.00 | 54 | 1018.2 |
| 20260905163003 | 78 | 85 | 1.7 | 6.1 | 0.00 | 0.00 | 0.00 | 53 | 1018.1 |
| 20260905162505 | 79 | 60 | 1.7 | 5.2 | 0.00 | 0.00 | 0.00 | 52 | 1018.1 |
| 20260905162003 | 79 | 71 | 1.7 | 4.3 | 0.00 | 0.00 | 0.00 | 52 | 1018.1 |
| 20260905161503 | 79 | 67 | 1.7 | 6.1 | 0.00 | 0.00 | 0.00 | 52 | 1018.1 |
| 20260905161005 | 79 | 68 | 1.7 | 6.1 | 0.00 | 0.00 | 0.00 | 51 | 1018.0 |
| 20260905160507 | 80 | 72 | 1.7 | 5.2 | 0.00 | 0.00 | 0.00 | 51 | 1018.1 |
| 20260905160006 | 80 | 77 | 1.7 | 7.8 | 0.00 | 0.00 | 0.00 | 50 | 1018.0 |
| 20260905155511 | 80 | 85 | 1.7 | 7.8 | 0.00 | 0.00 | 0.00 | 49 | 1017.9 |
| 20260905155003 | 80 | 60 | 2.6 | 7.8 | 0.00 | 0.00 | 0.00 | 49 | 1017.9 |
| 20260905154506 | 81 | 45 | 2.6 | 8.7 | 0.00 | 0.00 | 0.00 | 49 | 1017.8 |
| 20260905154003 | 81 | 51 | 2.6 | 8.7 | 0.00 | 0.00 | 0.00 | 49 | 1017.5 |
| 20260905153503 | 81 | 50 | 2.6 | 7.0 | 0.00 | 0.00 | 0.00 | 49 | 1017.5 |
| 20260905153006 | 81 | 56 | 2.6 | 9.6 | 0.00 | 0.00 | 0.00 | 48 | 1017.6 |
| 20260905152503 | 81 | 68 | 2.6 | 9.6 | 0.00 | 0.00 | 0.00 | 48 | 1017.7 |
| 20260905152003 | 81 | 77 | 3.5 | 8.7 | 0.00 | 0.00 | 0.00 | 49 | 1017.6 |
| 20260905151505 | 81 | 77 | 4.3 | 9.6 | 0.00 | 0.00 | 0.00 | 48 | 1017.6 |
| 20260905151210 | 81 | 77 | 4.3 | 9.6 | 0.00 | 0.00 | 0.00 | 48 | 1017.6 |
| 20260905150503 | 81 | 66 | 3.5 | 11.3 | 0.00 | 0.00 | 0.00 | 48 | 1017.6 |
| 20260905150005 | 82 | 69 | 2.6 | 12.2 | 0.00 | 0.00 | 0.00 | 48 | 1017.7 |
| 20260905145503 | 82 | 64 | 2.6 | 12.2 | 0.00 | 0.00 | 0.00 | 48 | 1017.5 |
| 20260905145003 | 82 | 75 | 3.5 | 7.8 | 0.00 | 0.00 | 0.00 | 49 | 1017.6 |
| 20260905144505 | 81 | 70 | 4.3 | 11.3 | 0.00 | 0.00 | 0.00 | 48 | 1017.7 |
| 20260905144003 | 81 | 66 | 3.5 | 13.0 | 0.00 | 0.00 | 0.00 | 48 | 1017.6 |
| 20260905143503 | 81 | 74 | 3.5 | 13.0 | 0.00 | 0.00 | 0.00 | 47 | 1017.8 |
| 20260905143005 | 81 | 72 | 3.5 | 10.4 | 0.00 | 0.00 | 0.00 | 48 | 1017.7 |
| 20260905142710 | 81 | 73 | 3.5 | 10.4 | 0.00 | 0.00 | 0.00 | 48 | 1017.7 |
| 20260905142003 | 81 | 65 | 3.5 | 10.4 | 0.00 | 0.00 | 0.00 | 47 | 1017.7 |
| 20260905141505 | 81 | 33 | 3.5 | 10.4 | 0.00 | 0.00 | 0.00 | 47 | 1017.7 |
| 20260905141003 | 81 | 31 | 3.5 | 10.4 | 0.00 | 0.00 | 0.00 | 47 | 1017.6 |
| 20260905140503 | 82 | 50 | 3.5 | 10.4 | 0.00 | 0.00 | 0.00 | 47 | 1017.6 |
| 20260905140005 | 82 | 57 | 3.5 | 10.4 | 0.00 | 0.00 | 0.00 | 47 | 1017.7 |
| 20260905135503 | 82 | 50 | 3.5 | 9.6 | 0.00 | 0.00 | 0.00 | 47 | 1017.8 |
| 20260905135003 | 82 | 44 | 3.5 | 10.4 | 0.00 | 0.00 | 0.00 | 46 | 1017.8 |
| 20260905134505 | 82 | 48 | 3.5 | 10.4 | 0.00 | 0.00 | 0.00 | 47 | 1017.8 |
| 20260905134003 | 82 | 58 | 4.3 | 12.2 | 0.00 | 0.00 | 0.00 | 46 | 1017.7 |
| 20260905133503 | 82 | 65 | 3.5 | 12.2 | 0.00 | 0.00 | 0.00 | 47 | 1017.7 |
| 20260905133005 | 83 | 66 | 2.6 | 9.6 | 0.00 | 0.00 | 0.00 | 47 | 1017.7 |
| 20260905132711 | 83 | 49 | 2.6 | 9.6 | 0.00 | 0.00 | 0.00 | 46 | 1017.8 |
| 20260905132003 | 83 | 43 | 2.6 | 11.3 | 0.00 | 0.00 | 0.00 | 46 | 1017.6 |
| 20260905131505 | 83 | 70 | 2.6 | 11.3 | 0.00 | 0.00 | 0.00 | 46 | 1017.6 |
| 20260905131211 | 83 | 71 | 2.6 | 9.6 | 0.00 | 0.00 | 0.00 | 46 | 1017.6 |
| 20260905130503 | 83 | 53 | 3.5 | 9.6 | 0.00 | 0.00 | 0.00 | 47 | 1017.5 |
| 20260905130005 | 83 | 61 | 5.2 | 9.6 | 0.00 | 0.00 | 0.00 | 46 | 1017.5 |
| 20260905125503 | 83 | 66 | 6.1 | 12.2 | 0.00 | 0.00 | 0.00 | 47 | 1017.6 |
| 20260905125003 | 83 | 63 | 5.2 | 13.9 | 0.00 | 0.00 | 0.00 | 46 | 1017.5 |
| 20260905124505 | 83 | 59 | 4.3 | 13.9 | 0.00 | 0.00 | 0.00 | 45 | 1017.6 |
| 20260905124003 | 83 | 70 | 4.3 | 11.3 | 0.00 | 0.00 | 0.00 | 46 | 1017.6 |
| 20260905123503 | 83 | 69 | 4.3 | 11.3 | 0.00 | 0.00 | 0.00 | 47 | 1017.4 |
| 20260905123005 | 83 | 74 | 4.3 | 13.9 | 0.00 | 0.00 | 0.00 | 47 | 1017.4 |
| 20260905122503 | 82 | 77 | 5.2 | 13.9 | 0.00 | 0.00 | 0.00 | 46 | 1017.5 |
| 20260905122213 | 82 | 77 | 5.2 | 13.9 | 0.00 | 0.00 | 0.00 | 47 | 1017.4 |
| 20260905121505 | 82 | 91 | 6.1 | 14.8 | 0.00 | 0.00 | 0.00 | 47 | 1017.4 |
| 20260905121003 | 82 | 91 | 5.2 | 14.8 | 0.00 | 0.00 | 0.00 | 47 | 1017.4 |
| 20260905120503 | 82 | 92 | 4.3 | 13.0 | 0.00 | 0.00 | 0.00 | 47 | 1017.4 |
| 20260905120212 | 82 | 94 | 5.2 | 13.0 | 0.00 | 0.00 | 0.00 | 48 | 1017.3 |
| 20260905115503 | 82 | 96 | 6.1 | 13.0 | 0.00 | 0.00 | 0.00 | 48 | 1017.3 |
| 20260905115210 | 82 | 96 | 5.2 | 13.0 | 0.00 | 0.00 | 0.00 | 48 | 1017.3 |
| 20260905114505 | 82 | 94 | 5.2 | 13.0 | 0.00 | 0.00 | 0.00 | 47 | 1017.4 |
| 20260905114003 | 82 | 105 | 6.1 | 11.3 | 0.00 | 0.00 | 0.00 | 47 | 1017.4 |
| 20260905113716 | 82 | 114 | 6.1 | 12.2 | 0.00 | 0.00 | 0.00 | 48 | 1017.3 |
| 20260905113212 | 83 | 110 | 5.2 | 12.2 | 0.00 | 0.00 | 0.00 | 47 | 1017.3 |
| 20260905112503 | 82 | 95 | 5.2 | 13.9 | 0.00 | 0.00 | 0.00 | 48 | 1017.3 |
| 20260905112210 | 82 | 93 | 5.2 | 13.9 | 0.00 | 0.00 | 0.00 | 47 | 1017.3 |
| 20260905111505 | 82 | 106 | 5.2 | 12.2 | 0.00 | 0.00 | 0.00 | 50 | 1017.2 |